星链-5382 (STARLINK-5382 )

导读 | 豆包AI

STARLINK-5382是美国太空探索技术公司星链计划的卫星之一,于2022年12月28日发射入轨,属于星链互联网卫星星座组网的组成部分,旨在为全球提供低延迟、高速率的宽带互联网服务,尤其覆盖偏远地区等网络基础设施匮乏区域,进一步扩充了星链星座的在轨服务规模。

Basic Information
目录编号:
54820
目录名称:
STARLINK-5382
国际标识:
2022-177A
轨道中心:
EARTH
卫星名称:
星链-5382
卫星全名:
星链-5382 (STARLINK-5382 )
卫星状态:
在轨 (已飞行1219 天)
发射日期:
2022-12-28 UTC
国别 :
美国 (US)
星等 :
--
Orbit Information
数据来源 国际轨道数据 AOE轨道数据
星历时间 2026-04-30T06:24:51+0800
16小时前
查看轨道信息
2026-04-25T08:00:00+0800
5天前
查看轨道信息
半长轴 6863.696km 6863.703km
偏心率 0.0001138 0.0001205
轨道倾角 43.003° 43.002°
近地点辐角 273.916° 290.005°
升交点赤经 206.395° 234.224°
平近点角 86.157° 280.063°
近地点 484.777km 484.738km
远地点 486.341km 486.394km
周期 94.318分钟 94.319分钟
每日圈数 15.267423 15.267399
Detailed Information
固有亮度:
5
最大亮度:
2.5
卫星平台:
Starlink v1.5
覆盖范围:
全球
运营商:
太空探索技术公司
运营商所在国:
美国
制造商(研发单位):
太空探索技术公司
制造商所在国:
美国
使用方式:
暂无
Satellite Introduction
星链(Starlink)计划是由太空探索技术公司(SpaceX)提出的一个巨型低轨卫星互联网星座项目,计划在2019年至2024年间在太空搭建由约1.2万颗卫星组成的“星链”网络,其中1584颗将部署在地球上空550千米处的近地轨道,并从2020年开始工作。该卫星仍在工作。
2D Orbit Map
3D Orbit Map
Orbit Altitude Analysis Chart
Orbit Inclination Analysis Chart
Orbit Comprehensive Analysis Chart
View Comprehensive Chart